061025 J70  1.1+  0.4-    061113 A77 (2.2+  1.7+)   061230 349  0.3+  0.0   

061025 A97  0.2+  0.9+    061113 A77  0.9-  0.6-    061230 349  0.4+  0.0   

061025 A97  0.3-  0.3+    061113 J67  0.7-  0.8-    2007/                   

061025 J63  1.1+  0.0     061113 J67  0.7-  0.7-    070101 J70  0.7+  0.8+  

061025 J63  0.8+  0.2+    061113 J67  0.6-  0.7-    070101 J70 (2.5+  1.6+) 

061025 J63  1.2+  0.4-    061113 213  0.7-  0.0     070101 J70  0.8+  1.6+  

061026 703 (4.7-  1.4+)   061113 213  0.2-  0.3+    070102 619  0.2+  0.3-  

061026 703  0.6+  1.3+    061113 213  1.2-  0.0     070102 619  0.0   0.0   

061026 703  1.5-  1.5+    061113 J79  0.1-  0.6+    070102 619  0.4-  0.2-  

061026 703  0.3-  0.1+    061113 J79  0.6-  0.0     070102 J70  0.0   0.2+  

061026 235  0.2+  0.4-    061113 J79  0.3-  0.3+    070102 J70  0.1-  0.2-  

061026 A97  0.4+  0.7+    061114 A92  1.0-  1.2-    070102 J70 (0.7-  2.0-) 

061026 A97  0.3+  0.3+    061114 A92  0.1+  0.1+    070103 349  0.3+  0.0   

061026 A97  0.5+  0.6+    061114 A92  0.6+  0.1+    070103 349  0.5+  0.2-  

061026 A97  0.6+  0.8+    061114 143  0.2-  0.3-    070104 349  0.3+  0.1-  

061026 A97  0.6+  0.3+    061114 143  0.1-  0.1-    070104 349  0.2+  0.1+  

061026 A97  0.4+  0.5+    061114 143  0.3-  0.1+    070104 349  0.5+  0.2+  

061027 372  0.0   0.4+    061114 143  0.5-  0.2-    070104 619  0.3-  0.8+  

061027 361  0.4+  0.6+    061114 143  0.8-  0.3-    070104 619  0.5-  1.1+  

061027 361  0.2-  1.0+    061114 143  0.7-  0.4-    070104 619  0.1+  0.9+  

061027 361  0.9+  0.4-    061114 143  0.6-  0.1-    070104 619 (0.0   2.3+) 

061027 361  0.4+  1.1+    061114 J97  0.7-  0.6-    070104 619  0.0   0.1-  

061027 361  0.7+  0.8+    061114 J97  1.1-  0.6-    070104 619  0.5+  0.3+  

061027 361  0.5+  1.1+    061114 J97  0.9-  0.7-    070104 619  0.5+  0.8+  

061027 361  0.6+  0.6+    061114 619  0.6+  1.3-    070104 619  0.7+  0.4+  

061027 361  0.3+  0.9-    061114 619  0.1+  1.1-    070104 619  1.4+  1.2+  

061027 071  0.3-  0.6-    061114 619  0.6+  1.2-    070104 619 (0.5+  3.0+) 

061027 071  0.5-  0.5-    061114 A77  1.2-  1.2-    070109 619  0.2+  0.0   

061027 071  0.3-  0.5-    061114 A77  1.5-  0.4-    070109 619  0.4+  0.3+  

061027 071  0.3-  0.5-    061114 A77  1.0-  0.8-    070109 619  0.8+  0.3+  

061027 071  0.3-  0.6-    061114 A77  0.4+  0.3-    070113 215  0.1-  0.4+  

061027 071  0.1-  0.2-    061114 A77  0.2-  0.4-    070113 215  0.3-  0.4+  

061027 071  0.3-  0.6-    061114 A77  0.2-  0.1+    070113 215  0.0   0.0   

061027 071  0.4-  0.5-    061114 A77  0.6-  0.5-    070428 349 (3.9+  4.4+) 

061027 071  0.2-  0.4-    061114 235  0.6-  0.4-    070428 349 (5.0+  3.6+) 

061027 071  0.3-  0.4-    061114 213  1.0-  0.4-    070507 349  1.1-  0.9+  

061027 071  0.3-  0.4-    061114 213  1.0-  1.0-    070507 349  0.0   0.5+  

061027 071  0.3-  0.4-    061114 213  1.7-  0.3-    070517 349  0.1+  1.2-  

061027 585  1.3-  0.2-    061114 442  0.8-  0.2-    070517 349  0.3-  0.5-  

061027 071  0.3-  0.4-    061114 442  0.1-  0.2+    070519 349  0.6-  1.2-  

061027 071  0.9+  0.4-    061114 442  0.9-  0.2+    070519 349  0.9+  0.2-  

061027 160  0.0   0.0     061114 J79  0.7-  0.1-    070525 415  0.5+  1.0+  

061027 071  0.0   0.1-    061114 J79  0.8-  0.1-    070527 349  1.1+  0.7-  

061027 071  0.0   0.1-    061114 J79  0.9-  0.1-    070527 349  0.9+  0.3-  

061027 160  0.3-  0.1-    061115 379  0.7-  0.6-    070615 E12  0.3+  0.0   

061027 160  0.0   0.0     061115 379  0.5-  0.4-    070714 215  0.1+  0.6-  

061027 071  0.2-  0.1-    061115 379  0.1+  0.3+    070714 215  0.4-  0.6-  

061027 071  0.1-  0.0     061115 379  0.8-  0.7-    070803 423  0.1-  1.2+  

061027 160  0.3-  0.2-    061115 215  0.9-  0.6-    070803 423  0.2+  0.2-  

061027 152  0.5+  0.8+    061115 215  0.5-  0.7-    070806 474  0.3+  0.8+  

061027 071  0.1+  0.0     061115 215  0.7-  0.9-    070806 474  0.2+  0.3+  

061027 071  0.1-  0.0     061115 939  1.0-  0.1-    070806 474  0.5+  0.6+  

061027 071  0.1-  0.1+    061115 939  0.7-  0.0     070811 E12  0.0   0.4+  

061027 152  0.4+  0.9+    061115 939  0.5-  0.1+    070811 E12  0.0   0.7+  

061027 071  0.0   0.1+    061115 213  1.0-  0.6-    070811 E12  0.7+  0.2+  

061027 152  0.4+  0.9+    061115 213  0.9-  0.6-    070811 E12  0.3+  0.1-  

061027 071  0.2+  0.0     061115 213  1.0-  0.6-    070907 E12  0.4+  0.6-  

061027 071  0.3+  0.4-    061116 A97  0.0   0.4+    070907 204  0.8+  1.0-  

061027 071  0.2+  0.1-    061116 A97  0.3-  0.2-    070918 415  0.9+  0.9+  

061027 071  0.1+  0.2-    061116 A97  0.7-  0.7-    070918 415  0.8-  0.9-  

061027 071  0.1+  0.2-    061116 A97  0.9-  0.0                             



NAKANO

         **** Don't distribute anyone except personal use only ****

                (C) Copyright 2008 OAA/ComputingSection

write mail from CFAD0::NAKANO on 2008-08-02 06:17:05(JST).

    C/2006 M4 (SWAN)

Epoch 2006 Sept. 22.0 TT = JDT 2454000.5  

T 2006 Sept. 28.72837 TT                                Nakano

q   0.7830074            (2000.0)            P               Q

z  -0.0002375      Peri.   62.59396     -0.22208993     +0.84760245

 +/-0.0000023      Node   148.72660     +0.15020055     -0.45862175

e   1.0001859      Incl.  111.82334     +0.96338770     +0.26690107

From 1192 observations 2006 July 12-2007 May 27, mean residual 0".68.

   (1/a)org.= +0.000196, (1/a)fut.= +0.000749 (+/-0.000002), Q= 7.



NAKANO

         **** Don't distribute anyone except personal use only ****

                (C) Copyright 2007 OAA/ComputingSection

write mail from CFAD0::NAKANO on 2007-06-06 06:36:26(JST).

 

    C/2006 M4 (SWAN)  [at the time of 2006 Dec. 21]

Epoch 2006 Sept. 22.0 TT = JDT 2454000.5  

T 2006 Sept. 28.72839 TT                                Nakano

q   0.7830074            (2000.0)            P               Q

z  -0.0002380      Peri.   62.59397     -0.22208943     +0.84760242

 +/-0.0000028      Node   148.72657     +0.15020079     -0.45862199

e   1.0001864      Incl.  111.82336     +0.96338778     +0.26690075

From 1093 observations 2006 July 12-Dec. 21, mean residual 0".69.

   (1/a)org.= +0.000195, (1/a)fut.= +0.000748 (+/-0.000003), Q= 7.



NAKANO

         **** Don't distribute anyone except personal use only ****

                (C) Copyright 2007 OAA/ComputingSection

write mail from CFAD0::NAKANO on 2007-01-11 23:59:04(JST).

 

    C/2006 M4 (SWAN)

Epoch 2006 Sept. 22.0 TT = JDT 2454000.5  

T 2006 Sept. 28.72838 TT                                Nakano

q   0.7830074            (2000.0)            P               Q

z  -0.0002379      Peri.   62.59396     -0.22208939     +0.84760230

 +/-0.0000036      Node   148.72655     +0.15020100     -0.45862217

e   1.0001863      Incl.  111.82336     +0.96338775     +0.26690082

From 913 observations 2006 July 12-Dec. 1, mean residual 0".72.

   (1/a)org.= +0.000195, (1/a)fut.= +0.000748 (+/-0.000004), Q= 6.





NAKANO

         **** Don't distribute anyone except personal use only ****

                (C) Copyright 2006 OAA/ComputingSection

write mail from CFAD0::NAKANO on 2006-12-06 04:14:31(JST).

 

◎C/2006 M4の軌道と予報位置です



  上尾の門田健一氏のCCD全光度によると,11月3日に6.4等,5日に6.6等,12日に

7.3等(門田)と彗星は徐々に減光しました.しかし,11月中旬,彗星が再び,増光

したという情報を得て,11月21日夕刻に彗星を観測したところ,彗星のCCD全光度は

6.6等(洲本)まで増光し,恒星状の輝く核が見られました.

 うぅ〜ん・・・.門田氏ほど,精度良く測定したい.でも,昔の子午環観測と同じ

で,悪い観測も10個集めれば,総和の1/10で一桁良くなる・・・・.



    C/2006 M4 (SWAN)

Epoch 2006 Sept. 22.0 TT = JDT 2454000.5  

T 2006 Sept. 28.72848 TT                                Nakano

q   0.7830079            (2000.0)            P               Q

z  -0.0002548      Peri.   62.59401     -0.22208930     +0.84760215

 +/-0.0000046      Node   148.72655     +0.15019937     -0.45862294

e   1.0001995      Incl.  111.82327     +0.96338803     +0.26689998

From 724 observations 2006 July 12-Nov. 21, mean residual 0".76.

   (1/a)org.= +0.000178, (1/a)fut.= +0.000731 (+/-0.000005), Q= 6.



位置予報は,天文ガイドより.

                                地心    日心   日々運動量    太陽          光度  尾の方向  天文薄明終了時

2006/2007  赤経 (2000) 赤緯     距離    距離      /位置角    離角  位相角   m1      /長さ   高度  方位角

 18h JST    h  m       。  ,        AU      AU      ,     。     。      。      等     。 。        。      。 

Dec.  5   20 04.57  +03 56.2    1.770   1.452    47.0/122    55.1   33.8    7.9   59/3.29   +36.2   65.3

      6   20 07.23  +03 31.2    1.797   1.466    45.8/122    54.6   33.2    7.9   59/3.19   +35.7   65.2

      7   20 09.83  +03 07.0    1.825   1.479    44.5/122    54.0   32.6    8.0   59/3.10   +35.2   65.1

      8   20 12.36  +02 43.7    1.852   1.493    43.4/121    53.5   32.0    8.1   59/3.00   +34.6   65.1

      9   20 14.84  +02 21.3    1.880   1.507    42.3/121    52.9   31.4    8.2   59/2.91   +34.1   65.1

     10   20 17.26  +01 59.6    1.907   1.521    41.2/120    52.3   30.8    8.2   59/2.82   +33.5   65.1

     11   20 19.63  +01 38.7    1.935   1.534    40.2/120    51.8   30.3    8.3   59/2.74   +32.9   65.2

     12   20 21.95  +01 18.5    1.962   1.548    39.3/120    51.2   29.7    8.4   59/2.66   +32.4   65.2

     13   20 24.23  +00 59.0    1.989   1.562    38.4/119    50.6   29.1    8.4   58/2.58   +31.8   65.3

     14   20 26.46  +00 40.2    2.017   1.576    37.5/119    50.0   28.6    8.5   58/2.50   +31.2   65.5

     15   20 28.64  +00 22.1    2.044   1.589    36.6/119    49.4   28.0    8.6   58/2.42   +30.6   65.6

     16   20 30.79  +00 04.6    2.071   1.603    35.8/118    48.7   27.5    8.6   58/2.35   +30.0   65.8

     17   20 32.90  -00 12.3    2.098   1.617    35.1/118    48.1   26.9    8.7   58/2.28   +29.4   66.0

     18   20 34.97  -00 28.6    2.125   1.631    34.3/117    47.5   26.4    8.8   58/2.21   +28.8   66.2

     19   20 37.00  -00 44.4    2.152   1.644    33.6/117    46.8   25.9    8.8   58/2.14   +28.2   66.4

     20   20 39.00  -00 59.6    2.179   1.658    32.9/116    46.2   25.4    8.9   58/2.08   +27.6   66.6

